AirNav   Air Wisconsin Up To $57,000 Bonus
 
 1295 users online  

1S9 Chewelah Municipal Airport
Chewelah, Washington, USA

GOING TO CHEWELAH?


FAA INFORMATION EFFECTIVE 16 JUNE 2022

Location

FAA Identifier: 1S9
Lat/Long: 48-18-50.2495N 117-44-36.3335W
48-18.837492N 117-44.605558W
48.3139582,-117.7434260
(estimated)
Elevation: 2084 ft. / 635 m (estimated)
Variation: 20E (1985)
Time zone: UTC -7 (UTC -8 during Standard Time)
Zip code: 99109

Airport Operations

Airport use: Open to the public
Activation date: 01/1979
Control tower: no
ARTCC: SEATTLE CENTER
FSS: SEATTLE FLIGHT SERVICE STATION
NOTAMs facility: SEA (NOTAM-D service available)
Attendance: UNATNDD
Wind indicator: lighted
Segmented circle: yes
Lights: ACTVT MIRL RY 17/35 - CTAF. PAPI RY 17 AND RY 35 OPER CONTINUOUSLY.
Beacon: white-green (lighted land airport)
Operates sunset to sunrise.

Airport Communications

CTAF: 122.9
WX AWOS-3 at 63S (15 nm N): 119.275 (509-684-8994)

Nearby radio navigation aids

NDB name  Hdg/Dist  Freq  Var  ID
DEER PARK313/24.336516EDPY -.. .--. -.--
IONE188/27.137921EION .. --- -.

Airport Services

Parking: tiedowns
Airframe service: MINOR
Powerplant service: MINOR
Bottled oxygen: NONE
Bulk oxygen: NONE

Runway Information

Runway 17/35

Dimensions: 3537 x 48 ft. / 1078 x 15 m
Surface: asphalt, in good condition
Runway edge lights: medium intensity
Runway edge markings: MARKINGS FADED.
RUNWAY 17  RUNWAY 35
Latitude: 48-19.124150N48-18.550833N
Longitude: 117-44.531783W117-44.679333W
Traffic pattern: rightleft
Displaced threshold: 230 ft.87 ft.
Markings: basic, in poor conditionbasic, in poor condition
Visual slope indicator: 2-light PAPI on right (4.00 degrees glide path)2-light PAPI on left (3.00 degrees glide path)
Obstructions: 11 ft. tree, 275 ft. from runway, 63 ft. right of centerline, 6:1 slope to clear
3 FT DITCH +1 FT TO +3 FT ROCKS & RD 56 FT FM THR; 77 FT L, +14 FT TREES 200 FT FM THR, AND 10 FT SIGN, 86 FT R, 53 FT FM THR.
none

Airport Ownership and Management from official FAA records

Ownership: Publicly-owned
Owner: CITY OF CHEWELAH
PO BOX 258
CHEWELAH, WA 99109
Phone 509-935-8311
Manager: TYRONE BRYANT
139 RICHMOND LANE
CHEWELAH, WA 99109
Phone (509) 936-0234

Airport Operational Statistics

Aircraft based on the field: 17
Single engine airplanes: 16
Multi engine airplanes: 1
    
Aircraft operations: avg 96/week *
60% local general aviation
40% transient general aviation
* for 12-month period ending 31 December 2018

Additional Remarks

ALL PATTERNS TO THE WEST.
DEER & WILDLIFE ON & INVOF ARPT.
FOR CD CTC SEATTLE ARTCC AT 253-351-3694.
LODGING & FOOD AVBL AT APRT.

Instrument Procedures

There are no published instrument procedures at 1S9.

Some nearby airports with instrument procedures:

KDEW - Deer Park Airport (24 nm SE)
KSFF - Felts Field Airport (41 nm SE)
KSKA - Fairchild Air Force Base (42 nm S)
KGEG - Spokane International Airport (43 nm S)
KSZT - Sandpoint Airport (47 nm E)
 
Loc | Ops | Rwys | IFR | FBO | Links
Com | Nav | Svcs | Stats | Notes
Area around 1S9 (Chewelah Municipal Airport)
 
Road maps at: MapQuest Bing Google
 
Aerial photo
WARNING: Photo may not be current or correct
Aerial photo of 1S9 (Chewelah Municipal Airport)
Photo by P.J. Reinders
Taken in September 2008

Do you have a better or more recent aerial photo of Chewelah Municipal Airport that you would like to share? If so, please send us your photo.

 
Sectional chart

 
Airport distance calculator
Flying to Chewelah Municipal Airport? Find the distance to fly.

From to 1S9

Sunrise and sunset
Times for 06-Jul-2022
 Local
(UTC-7)
 Zulu
(UTC)
Morning civil twilight04:1811:18
Sunrise04:5911:59
Sunset20:5303:53
Evening civil twilight21:3404:34

Current date and time
Zulu (UTC)  06-Jul-2022 14:00:09
Local (UTC-7)  06-Jul-2022 07:00:09
 
METAR
K63S 
14nm N 
061335Z AUTO 00000KT 4SM BR FEW045 SCT055 BKN075 14/13 A2999 RMK A01
KDEW 
24nm SE 
061353Z AUTO 02010KT 10SM OVC100 15/12 A2994 RMK AO2 RAB1257E13 SLP129 P0001 T01500117
TAF
KSFF 
42nm SE 
061139Z 0612/0712 04003KT P6SM VCTS SCT080 BKN100CB BKN200 FM061630 VRB03KT P6SM SCT100 BKN200 FM070300 03003KT P6SM FEW100 FM070800 03003KT P6SM SCT100 BKN150 PROB30 0708/0712 -SHRA
KSKA 
42nm S 
061100Z 0611/0717 33010KT 9999 VCSH BKN090 BKN140 QNH2989INS TEMPO 0611/0613 -RA VCTS BKN070CB OVC120 BECMG 0613/0614 VRB06KT 9999 NSW BKN100 QNH2988INS BECMG 0617/0618 03006KT 9999 VCSH BKN080 QNH2987INS BECMG 0620/0621 VRB10G15KT 9999 -TSRA BKN060CB QNH2984INS BECMG 0704/0705 27006KT 9999 NSW BKN040 QNH2989INS TX28/0700Z TN13/0612Z
KGEG 
43nm S 
061139Z 0612/0712 01005KT P6SM VCTS SCT060 BKN100CB BKN200 FM061630 01005KT P6SM SCT100 BKN200 FM062000 31007KT P6SM FEW080 SCT200 FM070300 VRB03KT P6SM FEW100 FM070800 VRB04KT P6SM SCT100 BKN150 PROB30 0708/0712 -SHRA
KCOE 
50nm SE 
061139Z 0612/0712 02011KT P6SM VCSH BKN090 BKN120 FM061700 02009KT P6SM SCT090 BKN200 FM062100 32005KT P6SM FEW090 SCT250 FM070500 09006KT P6SM SCT100 BKN150 PROB30 0709/0712 -SHRA
NOTAMs
Click for the latest NOTAMs
NOTAMs are issued by the DoD/FAA and will open in a separate window not controlled by AirNav.

 

 
 

Would you like to see your business listed on this page?

 If your business provides an interesting product or service to pilots, flight crews, aircraft, or users of the Chewelah Municipal Airport, you should consider listing it here.  To start the listing process, click on the button below
 
Add a business
 

Other Pages about Chewelah Municipal Airport

Update a link
 
Copyright © AirNav, LLC. All rights reserved. Privacy Policy  Contact